Time,TemperatureF,DewpointF,PressureIn,WindDirection,WindDirectionDegrees,WindSpeedMPH,WindSpeedGustMPH,Humidity,HourlyPrecipIn,Conditions,Clouds,dailyrainin,SoftwareType,DateUTC
2013-01-28 07:33:00,65.0,57.0,29.89,North,-999,-999.0,-999.0,77,-99.99,,,-99.99,,2013-01-28 13:33:00,
2013-01-28 07:42:00,65.0,58.0,29.89,North,-999,-999.0,-999.0,77,-99.99,,,-99.99,,2013-01-28 13:42:00,
2013-01-28 07:52:00,65.0,58.0,29.89,North,-999,-999.0,-999.0,77,-99.99,,,-99.99,,2013-01-28 13:52:00,
2013-01-28 08:03:00,65.0,58.0,29.90,North,-999,-999.0,-999.0,77,-99.99,,,-99.99,,2013-01-28 14:03:00,
2013-01-28 08:12:00,65.0,58.0,29.90,North,-999,-999.0,-999.0,77,-99.99,,,-99.99,,2013-01-28 14:12:00,
2013-01-28 08:22:00,65.0,58.0,29.90,North,-999,-999.0,-999.0,77,-99.99,,,-99.99,,2013-01-28 14:22:00,
2013-01-28 08:33:00,65.0,58.0,29.90,North,-999,-999.0,-999.0,77,-99.99,,,-99.99,,2013-01-28 14:33:00,
2013-01-28 08:43:00,66.0,58.0,29.91,North,-999,-999.0,-999.0,76,-99.99,,,-99.99,,2013-01-28 14:43:00,
2013-01-28 08:52:00,66.0,58.0,29.91,North,-999,-999.0,-999.0,76,-99.99,,,-99.99,,2013-01-28 14:52:00,
2013-01-28 09:03:00,66.0,58.0,29.90,North,-999,-999.0,-999.0,76,-99.99,,,-99.99,,2013-01-28 15:03:00,
2013-01-28 09:12:00,66.0,58.0,29.90,North,-999,-999.0,-999.0,76,-99.99,,,-99.99,,2013-01-28 15:12:00,
2013-01-28 09:23:00,66.0,58.0,29.90,North,-999,-999.0,-999.0,76,-99.99,,,-99.99,,2013-01-28 15:23:00,
2013-01-28 09:33:00,66.0,58.0,29.91,North,-999,-999.0,-999.0,76,-99.99,,,-99.99,,2013-01-28 15:33:00,
2013-01-28 09:43:00,66.0,58.0,29.90,North,-999,-999.0,-999.0,77,-99.99,,,-99.99,,2013-01-28 15:43:00,
2013-01-28 09:52:00,66.0,58.0,29.90,North,-999,-999.0,-999.0,77,-99.99,,,-99.99,,2013-01-28 15:52:00,
2013-01-28 10:04:00,67.0,59.0,29.91,North,-999,-999.0,-999.0,76,-99.99,,,-99.99,,2013-01-28 16:04:00,
2013-01-28 10:12:00,67.0,59.0,29.91,North,-999,-999.0,-999.0,75,-99.99,,,-99.99,,2013-01-28 16:12:00,
2013-01-28 10:22:00,67.0,59.0,29.91,North,-999,-999.0,-999.0,75,-99.99,,,-99.99,,2013-01-28 16:22:00,
2013-01-28 10:32:00,67.0,59.0,29.91,North,-999,-999.0,-999.0,74,-99.99,,,-99.99,,2013-01-28 16:32:00,
2013-01-28 10:43:00,67.0,58.0,29.92,North,-999,-999.0,-999.0,73,-99.99,,,-99.99,,2013-01-28 16:43:00,
2013-01-28 10:52:00,67.0,58.0,29.92,North,-999,-999.0,-999.0,73,-99.99,,,-99.99,,2013-01-28 16:52:00,
2013-01-28 11:02:00,68.0,58.0,29.91,North,-999,-999.0,-999.0,72,-99.99,,,-99.99,,2013-01-28 17:02:00,
2013-01-28 11:12:00,68.0,58.0,29.92,North,-999,-999.0,-999.0,71,-99.99,,,-99.99,,2013-01-28 17:12:00,
2013-01-28 11:23:00,68.0,58.0,29.92,North,-999,-999.0,-999.0,71,-99.99,,,-99.99,,2013-01-28 17:23:00,
2013-01-28 11:32:00,68.0,58.0,29.92,North,-999,-999.0,-999.0,70,-99.99,,,-99.99,,2013-01-28 17:32:00,
2013-01-28 11:42:00,68.0,58.0,29.92,North,-999,-999.0,-999.0,70,-99.99,,,-99.99,,2013-01-28 17:42:00,
2013-01-28 11:52:00,68.0,58.0,29.92,North,-999,-999.0,-999.0,70,-99.99,,,-99.99,,2013-01-28 17:52:00,
2013-01-28 12:03:00,69.0,58.0,29.91,North,-999,-999.0,-999.0,70,-99.99,,,-99.99,,2013-01-28 18:03:00,
2013-01-28 12:12:00,69.0,59.0,29.91,North,-999,-999.0,-999.0,70,-99.99,,,-99.99,,2013-01-28 18:12:00,
2013-01-28 12:23:00,69.0,59.0,29.91,North,-999,-999.0,-999.0,70,-99.99,,,-99.99,,2013-01-28 18:23:00,
2013-01-28 12:33:00,69.0,58.0,29.90,North,-999,-999.0,-999.0,69,-99.99,,,-99.99,,2013-01-28 18:33:00,
2013-01-28 12:42:00,69.0,58.0,29.90,North,-999,-999.0,-999.0,68,-99.99,,,-99.99,,2013-01-28 18:42:00,
2013-01-28 12:52:00,69.0,58.0,29.90,North,-999,-999.0,-999.0,68,-99.99,,,-99.99,,2013-01-28 18:52:00,
2013-01-28 13:02:00,69.0,58.0,29.89,North,-999,-999.0,-999.0,68,-99.99,,,-99.99,,2013-01-28 19:02:00,
2013-01-28 13:12:00,70.0,58.0,29.89,North,-999,-999.0,-999.0,66,-99.99,,,-99.99,,2013-01-28 19:12:00,
2013-01-28 13:22:00,70.0,58.0,29.89,North,-999,-999.0,-999.0,66,-99.99,,,-99.99,,2013-01-28 19:22:00,
2013-01-28 13:32:00,72.0,58.0,29.88,North,-999,-999.0,-999.0,63,-99.99,,,-99.99,,2013-01-28 19:32:00,
2013-01-28 13:42:00,72.0,58.0,29.88,North,-999,-999.0,-999.0,62,-99.99,,,-99.99,,2013-01-28 19:42:00,
2013-01-28 13:52:00,72.0,58.0,29.88,North,-999,-999.0,-999.0,62,-99.99,,,-99.99,,2013-01-28 19:52:00,
2013-01-28 14:02:00,71.0,58.0,29.86,North,-999,-999.0,-999.0,62,-99.99,,,-99.99,,2013-01-28 20:02:00,
2013-01-28 14:12:00,72.0,57.0,29.85,North,-999,-999.0,-999.0,59,-99.99,,,-99.99,,2013-01-28 20:12:00,
2013-01-28 14:22:00,72.0,57.0,29.85,North,-999,-999.0,-999.0,59,-99.99,,,-99.99,,2013-01-28 20:22:00,
2013-01-28 14:33:00,73.0,57.0,29.84,North,-999,-999.0,-999.0,58,-99.99,,,-99.99,,2013-01-28 20:33:00,
2013-01-28 14:42:00,72.0,56.0,29.84,North,-999,-999.0,-999.0,57,-99.99,,,-99.99,,2013-01-28 20:42:00,
2013-01-28 14:52:00,72.0,56.0,29.84,North,-999,-999.0,-999.0,57,-99.99,,,-99.99,,2013-01-28 20:52:00,
2013-01-28 15:03:00,73.0,57.0,29.84,North,-999,-999.0,-999.0,57,-99.99,,,-99.99,,2013-01-28 21:03:00,
2013-01-28 15:12:00,73.0,57.0,29.84,North,-999,-999.0,-999.0,57,-99.99,,,-99.99,,2013-01-28 21:12:00,
2013-01-28 15:22:00,73.0,57.0,29.84,North,-999,-999.0,-999.0,57,-99.99,,,-99.99,,2013-01-28 21:22:00,
2013-01-28 15:33:00,73.0,57.0,29.83,North,-999,-999.0,-999.0,56,-99.99,,,-99.99,,2013-01-28 21:33:00,
2013-01-28 15:43:00,73.0,56.0,29.83,North,-999,-999.0,-999.0,56,-99.99,,,-99.99,,2013-01-28 21:43:00,
2013-01-28 15:52:00,73.0,56.0,29.83,North,-999,-999.0,-999.0,56,-99.99,,,-99.99,,2013-01-28 21:52:00,
2013-01-28 16:02:00,73.0,56.0,29.83,North,-999,-999.0,-999.0,56,-99.99,,,-99.99,,2013-01-28 22:02:00,
2013-01-28 16:12:00,72.0,56.0,29.84,North,-999,-999.0,-999.0,57,-99.99,,,-99.99,,2013-01-28 22:12:00,
2013-01-28 16:23:00,72.0,56.0,29.84,North,-999,-999.0,-999.0,57,-99.99,,,-99.99,,2013-01-28 22:23:00,
2013-01-28 16:32:00,72.0,56.0,29.84,North,-999,-999.0,-999.0,58,-99.99,,,-99.99,,2013-01-28 22:32:00,
2013-01-28 16:42:00,72.0,56.0,29.84,North,-999,-999.0,-999.0,57,-99.99,,,-99.99,,2013-01-28 22:42:00,
2013-01-28 16:52:00,72.0,56.0,29.84,North,-999,-999.0,-999.0,57,-99.99,,,-99.99,,2013-01-28 22:52:00,
2013-01-28 17:02:00,71.0,56.0,29.84,North,-999,-999.0,-999.0,58,-99.99,,,-99.99,,2013-01-28 23:02:00,
2013-01-28 17:12:00,71.0,56.0,29.84,North,-999,-999.0,-999.0,58,-99.99,,,-99.99,,2013-01-28 23:12:00,
2013-01-28 17:22:00,71.0,56.0,29.84,North,-999,-999.0,-999.0,58,-99.99,,,-99.99,,2013-01-28 23:22:00,
2013-01-28 17:32:00,71.0,56.0,29.83,North,-999,-999.0,-999.0,60,-99.99,,,-99.99,,2013-01-28 23:32:00,
2013-01-28 17:42:00,70.0,56.0,29.82,North,-999,-999.0,-999.0,60,-99.99,,,-99.99,,2013-01-28 23:42:00,
2013-01-28 17:52:00,70.0,56.0,29.82,North,-999,-999.0,-999.0,60,-99.99,,,-99.99,,2013-01-28 23:52:00,
2013-01-28 18:02:00,70.0,56.0,29.82,North,-999,-999.0,-999.0,62,-99.99,,,-99.99,,2013-01-29 00:02:00,
2013-01-28 18:12:00,70.0,56.0,29.82,North,-999,-999.0,-999.0,63,-99.99,,,-99.99,,2013-01-29 00:12:00,
2013-01-28 18:22:00,70.0,56.0,29.82,North,-999,-999.0,-999.0,63,-99.99,,,-99.99,,2013-01-29 00:22:00,
2013-01-28 18:32:00,69.0,56.0,29.82,North,-999,-999.0,-999.0,63,-99.99,,,-99.99,,2013-01-29 00:32:00,
2013-01-28 18:42:00,69.0,56.0,29.82,North,-999,-999.0,-999.0,64,-99.99,,,-99.99,,2013-01-29 00:42:00,
2013-01-28 18:52:00,69.0,56.0,29.82,North,-999,-999.0,-999.0,64,-99.99,,,-99.99,,2013-01-29 00:52:00,
2013-01-28 19:02:00,69.0,56.0,29.82,North,-999,-999.0,-999.0,65,-99.99,,,-99.99,,2013-01-29 01:02:00,
2013-01-28 19:12:00,68.0,56.0,29.82,North,-999,-999.0,-999.0,65,-99.99,,,-99.99,,2013-01-29 01:12:00,
2013-01-28 19:23:00,68.0,56.0,29.82,North,-999,-999.0,-999.0,65,-99.99,,,-99.99,,2013-01-29 01:23:00,
2013-01-28 19:32:00,68.0,56.0,29.82,North,-999,-999.0,-999.0,67,-99.99,,,-99.99,,2013-01-29 01:32:00,
2013-01-28 19:42:00,67.0,57.0,29.82,North,-999,-999.0,-999.0,68,-99.99,,,-99.99,,2013-01-29 01:42:00,
2013-01-28 19:52:00,67.0,57.0,29.82,North,-999,-999.0,-999.0,68,-99.99,,,-99.99,,2013-01-29 01:52:00,
2013-01-28 20:02:00,67.0,56.0,29.83,North,-999,-999.0,-999.0,69,-99.99,,,-99.99,,2013-01-29 02:02:00,
2013-01-28 20:12:00,67.0,57.0,29.82,North,-999,-999.0,-999.0,70,-99.99,,,-99.99,,2013-01-29 02:12:00,
2013-01-28 20:22:00,67.0,57.0,29.82,North,-999,-999.0,-999.0,70,-99.99,,,-99.99,,2013-01-29 02:22:00,
2013-01-28 20:33:00,67.0,57.0,29.82,North,-999,-999.0,-999.0,71,-99.99,,,-99.99,,2013-01-29 02:33:00,
2013-01-28 20:42:00,67.0,57.0,29.82,North,-999,-999.0,-999.0,71,-99.99,,,-99.99,,2013-01-29 02:42:00,
2013-01-28 20:52:00,67.0,57.0,29.82,North,-999,-999.0,-999.0,71,-99.99,,,-99.99,,2013-01-29 02:52:00,
2013-01-28 21:03:00,67.0,57.0,29.82,North,-999,-999.0,-999.0,72,-99.99,,,-99.99,,2013-01-29 03:03:00,
2013-01-28 21:12:00,67.0,57.0,29.82,North,-999,-999.0,-999.0,72,-99.99,,,-99.99,,2013-01-29 03:12:00,
2013-01-28 21:22:00,67.0,57.0,29.82,North,-999,-999.0,-999.0,72,-99.99,,,-99.99,,2013-01-29 03:22:00,
2013-01-28 21:32:00,66.0,57.0,29.81,North,-999,-999.0,-999.0,74,-99.99,,,-99.99,,2013-01-29 03:32:00,
2013-01-28 21:42:00,66.0,57.0,29.81,North,-999,-999.0,-999.0,73,-99.99,,,-99.99,,2013-01-29 03:42:00,
2013-01-28 21:52:00,66.0,57.0,29.81,North,-999,-999.0,-999.0,73,-99.99,,,-99.99,,2013-01-29 03:52:00,
2013-01-28 22:02:00,67.0,58.0,29.80,North,-999,-999.0,-999.0,73,-99.99,,,-99.99,,2013-01-29 04:02:00,
2013-01-28 22:11:00,67.0,58.0,29.80,North,-999,-999.0,-999.0,73,-99.99,,,-99.99,,2013-01-29 04:11:00,
2013-01-28 22:22:00,67.0,58.0,29.80,North,-999,-999.0,-999.0,73,-99.99,,,-99.99,,2013-01-29 04:22:00,
2013-01-28 22:32:00,66.0,58.0,29.79,North,-999,-999.0,-999.0,74,-99.99,,,-99.99,,2013-01-29 04:32:00,
2013-01-28 22:42:00,66.0,57.0,29.78,North,-999,-999.0,-999.0,74,-99.99,,,-99.99,,2013-01-29 04:42:00,
2013-01-28 22:52:00,66.0,57.0,29.78,North,-999,-999.0,-999.0,74,-99.99,,,-99.99,,2013-01-29 04:52:00,
2013-01-28 23:00:00,65.0,58.0,29.79,North,-999,-999.0,-999.0,76,-99.99,,,-99.99,,2013-01-29 05:00:00,
2013-01-28 23:03:00,66.0,58.0,29.78,North,-999,-999.0,-999.0,75,-99.99,,,-99.99,,2013-01-29 05:03:00,
2013-01-28 23:12:00,66.0,58.0,29.78,North,-999,-999.0,-999.0,76,-99.99,,,-99.99,,2013-01-29 05:12:00,
2013-01-28 23:21:00,66.0,58.0,29.78,North,-999,-999.0,-999.0,76,-99.99,,,-99.99,,2013-01-29 05:21:00,
2013-01-28 23:32:00,66.0,58.0,29.79,North,-999,-999.0,-999.0,76,-99.99,,,-99.99,,2013-01-29 05:32:00,
2013-01-28 23:42:00,65.0,58.0,29.79,North,-999,-999.0,-999.0,76,-99.99,,,-99.99,,2013-01-29 05:42:00,
2013-01-28 23:52:00,65.0,58.0,29.79,North,-999,-999.0,-999.0,76,-99.99,,,-99.99,,2013-01-29 05:52:00,